ATLAS D DEB, 2329

Orbit data source: Space-Track

ATLAS D DEB, 2329 is space debris in LEO originally from a launch on Thu, 14 Jul 1966 UTC launched from the Air Force Western Test Range (AFWTR). Debris objects in space refer to the collection of defunct objects orbiting the Earth. Examples of debris include non-operational satellites, rocket bodies, and fragments generated from explosions, collisions, or faulty payload assembly.

Loading next visibility...
Identifier
2329, 1966-063D
Orbit
LEO
Country
Flag of USUS
Related business
Manufacturer
Goodyear
Mission
Spacecraft
Bus & Motor
CONTAINER, Unknown motor
Mass
2 kg wet, 2 kg dry
Launch date (UTC)
1966-07-14 (59 years ago)
Launch vehicle
Unknown
Launch site
Air Force Western Test Range (AFWTR)
Object type
Payload
Rocket body
Debris
Shape & HBR
Unknown
Radar Cross Section
Medium (>0.1 m² and <1 m²)

Expand to show TLE details & history
Last TLE update: 9 hours ago

TLE from 9 hours ago
0 ATLAS D DEB
1 02329U 66063D   25309.90202336  .00001040  00000-0  59553-3 0  9996
2 02329 144.2868  47.6338 0021871  68.8935  51.0903 13.92230976991122
Epoch: 2025-11-05T21:38Z
TLE epoch observation values (Epoch: 2025-11-05T21:38:54.818Z)
Latitude
30.42741°
Longitude
-88.10308°
Altitude
910.779 km
Speed
7.406 km/s
True Right ascension
18h 47m 58s
True Declination
30° 16' 50"
Sunlit
Object was in daylight at epoch
Visualization orbit readout
Latitude
Unknown
Longitude
Unknown
Altitude
Unknown
Speed
Unknown
Apparent Right ascension
Unknown
Apparent Declination
Unknown
Sunlit
N/A
Visualization observer readout
Local Sidereal Time
02:15:40
Azimuth
Unknown
Elevation
Unknown
Doppler factor
Unknown
Orbital elements
Apogee altitude
939.748 km
Perigee altitude
907.808 km
Semi-major axis
7,301.915 km
Eccentricity
0.00219
Inclination
144.2868°
RAAN
47.6338°
Arg. of periapsis
68.8935°
True anomaly
51.28565°
Mean anomaly
51.0903°
Eccentric anomaly
51.18794°
Mean motion
3.47847 °/min
Orbital period
103.49 mins
BSTAR
0.00059553
Loading maneuver chart data...
Computing Atmospheric mass density...
Loading historical data...
Loading historical data...
Loading historical data...
Loading historical data...
Loading historical data...
Loading historical data...
Loading historical data...

Documentation

Showing up to 5 results
|